Location: Double Diamond Ranch
(30.2800°N, 103.5900°W)
Time: 01:27:53
(UTC-05:00)

ISS - Visible Passes

Search period start: 22 July 2018 00:00
Search period end: 01 August 2018 00:00
Orbit: 402 x 408 km, 51.6° (Epoch: 22 July)

Date Brightness Start Highest point End Pass type
(mag) Time Alt. Az. Time Alt. Az. Time Alt. Az.
22 Jul -0.9 04:31:51 10° N 04:34:10 18° NE 04:36:29 10° E visible
22 Jul -3.1 06:07:45 10° WNW 06:10:41 30° SW 06:13:36 10° SSE visible
23 Jul -0.5 21:53:04 10° WNW 21:54:38 13° NW 21:56:13 10° N visible
